Wind_Speed
31 31 30 30 30 30 30 30 30 30 31 31 30 30 30 30 30 30 30 30 30 30 30 30 30 30 30 30 30 30 30 30 31 31 31 31 32 32 32 33 33 34 33
32 33 32 32 32 32 33 33 33 33 33 32 32 32 32 32 31 31 32 33 33 33 33 33 33 33 33 32 32 32 32 32 33 33 33 33 33 34 34 34 35 35 35
33 34 34 34 33 34 34 35 35 34 33 33 33 33 34 34 33 34 34 34 34 34 34 35 35 35 35 35 35 35 35 35 35 35 35 35 35 35 35 36 36 37 36
34 35 35 35 35 35 35 35 36 36 35 35 34 35 35 35 35 36 36 36 36 36 36 36 36 36 37 37 37 37 38 38 37 37 37 37 37 37 37 37 38 38 38
35 35 35 36 36 36 36 37 37 37 37 37 36 37 37 37 37 37 36 36 36 36 36 36 37 38 38 39 39 39 40 40 39 39 39 39 39 38 39 39 39 40 40
36 36 36 36 38 38 38 38 38 38 39 39 39 38 38 37 37 37 38 38 37 37 38 38 39 39 40 40 41 41 41 41 41 41 41 41 40 41 41 41 41 41 41
37 37 37 37 38 39 39 39 39 39 39 40 40 39 39 38 38 38 38 39 39 39 39 39 39 40 40 41 41 41 41 42 42 42 42 42 42 42 42 42 42 42 41
37 38 38 39 39 39 39 40 40 40 40 39 39 39 39 39 39 39 39 40 40 41 41 41 41 41 41 42 42 42 42 43 43 43 43 43 43 43 43 43 43 42 42
37 39 40 40 40 40 40 40 40 40 39 39 39 39 39 39 39 39 40 41 42 42 42 42 42 42 43 43 43 43 44 44 44 44 44 44 44 44 44 44 43 43 42
37 39 40 40 40 40 39 39 39 40 39 38 38 39 39 39 39 40 41 42 42 43 43 43 43 43 44 44 44 44 45 45 45 45 45 46 46 46 46 45 44 44 44
37 38 40 41 41 40 40 40 40 41 40 39 40 40 40 40 39 40 41 42 42 43 45 45 45 45 44 45 45 45 45 46 46 46 47 47 47 47 46 46 46 45 45
37 38 40 40 40 40 41 41 41 41 42 42 42 43 43 43 42 43 43 43 43 44 45 45 45 46 46 46 46 47 47 47 47 48 48 48 48 48 48 47 47 47 46
38 38 39 39 40 41 41 41 41 42 43 43 44 44 46 46 45 44 44 45 45 46 46 46 47 47 48 48 48 49 50 50 49 49 50 50 50 50 50 49 49 49 48
38 37 38 39 39 40 41 41 41 42 43 43 44 44 46 46 46 45 45 46 46 47 47 47 48 48 49 50 50 51 51 51 51 51 52 52 52 51 51 50 50 50 50
36 37 37 38 40 40 41 41 42 42 43 44 44 44 45 46 47 47 47 47 47 47 47 48 49 49 50 50 51 52 53 53 52 53 52 52 51 51 51 51 50 50 51
37 38 38 39 40 41 42 43 43 44 44 45 45 46 46 46 47 49 49 49 49 49 49 49 49 50 51 51 52 52 52 52 52 52 52 52 52 51 51 51 51 51 50
38 39 40 40 41 43 44 44 45 45 45 45 46 47 47 48 48 49 49 50 51 51 51 50 51 51 52 52 51 51 51 52 52 52 52 52 51 51 51 51 51 51 51
40 41 41 42 43 44 45 45 46 46 47 47 47 47 48 48 49 49 50 51 52 52 52 52 52 52 52 52 52 51 51 51 52 52 52 51 51 51 51 51 50 50 50
40 41 41 42 42 43 45 46 46 46 46 47 47 47 48 49 49 49 50 51 52 53 53 53 52 52 52 52 52 52 52 51 51 52 51 51 52 51 51 50 50 50 50
40 40 41 42 43 43 45 46 46 46 47 47 47 48 49 49 49 49 51 51 52 52 53 53 53 51 51 51 51 51 50 50 50 51 51 52 51 51 50 49 49 50 50
41 42 43 43 44 45 45 45 45 46 46 46 47 48 48 48 49 49 50 50 50 51 52 52 52 51 50 50 50 50 49 49 49 49 49 50 50 49 48 48 48 49 49
43 44 44 44 44 44 45 45 45 44 45 45 46 46 47 47 48 49 49 49 49 50 51 51 51 50 49 49 49 49 48 48 47 48 48 47 48 48 48 48 48 48 47
44 44 45 45 45 45 45 44 44 44 44 44 45 46 46 47 48 48 48 48 48 48 49 49 49 49 48 48 47 47 47 47 46 47 47 46 47 47 46 46 46 45 45
46 46 46 46 46 46 45 44 44 43 43 44 45 46 46 47 47 48 48 48 47 47 48 48 49 48 47 46 46 46 46 46 46 46 46 46 45 45 45 45 44 44 43
47 46 46 46 46 45 45 45 44 44 44 45 45 46 47 46 47 47 47 47 47 46 46 46 47 46 46 46 46 46 45 45 45 45 45 45 44 43 43 43 43 42 42
46 47 47 47 46 45 45 45 45 44 45 45 45 45 46 46 46 46 47 47 46 45 44 44 44 45 46 46 46 45 44 44 43 43 43 43 42 42 40 40 40 40 39
Wind_Direction
251 253 255 256 257 259 262 264 267 267 270 272 273 275 276 277 277 276 276 277 278 278 279 279 280 281 281 282 283 283 284 284 284 284 285 285 285 286 286 285 285 285 285
251 253 255 257 259 260 261 262 265 266 268 270 272 273 275 275 276 275 276 277 277 278 278 279 280 280 280 281 282 283 283 283 283 284 284 285 285 286 286 285 285 285 285
252 255 256 258 260 261 261 262 263 265 266 268 270 272 274 275 275 275 276 277 277 278 278 278 278 279 279 280 281 282 282 283 283 283 283 284 285 285 285 285 285 285 285
253 255 257 259 261 261 262 262 263 264 265 268 271 273 274 274 274 275 276 276 277 277 278 278 278 278 279 280 281 281 282 282 283 283 283 283 285 285 285 285 285 285 284
254 256 259 261 261 262 263 263 263 263 265 267 270 273 273 274 275 275 275 276 277 277 278 278 278 278 278 279 280 280 281 281 282 282 282 283 284 284 285 285 285 285 284
255 257 259 260 261 263 263 264 264 264 265 267 269 271 272 273 275 275 276 276 277 277 278 278 279 279 279 279 280 280 280 280 281 282 283 284 284 285 285 285 285 284 283
256 258 258 259 262 263 262 263 264 266 267 267 268 270 272 272 273 275 276 277 277 278 279 279 279 279 280 280 280 280 280 280 281 282 283 283 284 285 285 285 285 284 282
257 258 259 260 262 263 264 264 265 266 268 268 268 270 272 272 273 275 276 277 277 278 279 279 279 280 280 280 280 280 280 280 280 281 282 283 284 284 284 284 284 283 281
258 259 260 262 263 264 264 265 266 266 267 267 267 269 271 270 272 274 276 277 278 278 279 279 280 280 281 280 280 280 280 280 280 281 282 283 283 283 284 283 283 283 282
260 260 261 261 264 266 266 266 266 268 268 267 267 269 271 271 272 273 275 276 277 278 279 279 279 280 280 280 280 280 280 280 281 281 281 282 283 283 283 282 282 282 281
262 261 261 262 264 266 267 268 268 269 269 269 269 269 271 273 274 275 276 277 277 278 278 278 279 279 279 280 279 279 280 280 281 281 281 282 282 282 282 281 281 281 281
263 264 264 264 264 265 267 268 269 269 270 270 270 271 272 274 275 276 277 278 278 278 279 279 279 279 279 279 279 279 280 280 281 281 281 282 282 282 282 281 280 280 280
264 266 266 266 266 267 268 268 269 269 270 271 272 272 274 275 276 277 278 279 278 278 279 279 280 280 279 279 279 280 280 280 280 281 281 281 282 282 281 280 279 279 278
264 265 265 266 267 268 268 269 270 271 271 272 273 274 275 276 276 277 278 279 279 279 279 279 280 280 280 280 280 280 280 280 281 281 281 281 281 281 281 280 279 279 278
264 265 266 268 268 269 270 270 271 271 272 273 273 275 276 276 276 277 278 279 280 280 280 280 280 280 281 281 281 281 281 281 281 282 282 281 281 281 281 280 280 280 279
267 267 268 269 270 271 271 271 272 272 273 274 274 275 276 277 277 278 278 279 280 281 280 281 281 280 281 282 282 282 281 281 280 281 281 281 281 281 281 280 280 280 279
268 269 269 270 272 272 271 272 273 273 274 275 275 275 277 278 278 278 278 280 280 281 281 281 281 281 281 281 282 282 281 280 281 282 282 282 282 282 282 281 281 280 279
270 271 271 272 274 274 273 273 274 275 275 275 275 276 277 279 278 278 279 280 281 281 281 281 281 282 281 281 280 281 281 281 282 282 282 282 282 282 282 281 280 280 280
273 273 273 274 275 276 275 275 276 276 276 277 277 277 279 279 278 279 279 280 281 281 281 281 282 283 281 281 280 280 281 281 281 281 281 281 282 282 282 281 280 280 279
274 274 275 275 276 277 276 277 277 277 277 278 278 278 279 279 279 279 279 280 280 281 281 282 282 283 282 282 282 281 281 281 281 281 282 282 282 282 282 281 281 280 279
275 276 276 277 277 277 277 277 277 277 277 277 278 278 279 280 280 280 281 281 282 282 282 283 283 283 283 283 283 282 281 281 281 282 282 283 283 282 282 282 282 281 280
275 276 277 278 278 278 278 277 277 277 276 277 278 279 280 281 281 281 281 282 282 282 283 283 283 284 284 283 283 282 282 282 282 282 283 283 283 282 282 282 282 282 281
276 277 277 278 277 277 278 278 278 278 278 278 279 279 280 282 282 282 282 283 283 283 283 284 284 285 284 284 283 283 283 283 283 284 284 284 283 284 283 283 283 282 281
276 277 277 277 277 277 277 277 276 277 278 278 279 280 281 282 283 283 282 283 283 283 284 285 285 285 285 284 284 284 284 284 284 284 284 284 284 284 284 284 283 282 280
275 276 276 277 277 277 277 276 276 277 278 279 280 281 282 283 284 283 283 283 284 284 284 285 285 286 285 285 285 286 285 285 285 285 284 284 284 284 284 283 283 282 280
274 275 275 276 276 276 276 276 277 278 279 279 280 281 283 284 285 285 284 284 284 284 284 284 285 285 285 285 286 286 286 286 286 286 284 284 284 283 282 281 281 281 280
Height
5803 5805 5807 5808 5810 5812 5813 5814 5815 5815 5816 5816 5817 5817 5817 5817 5817 5817 5817 5816 5816 5816 5815 5815 5814 5813 5813 5812 5812 5811 5810 5809 5809 5808 5807 5806 5805 5805 5804 5803 5802 5801 5800
5796 5798 5800 5801 5803 5804 5805 5806 5807 5808 5809 5809 5809 5810 5810 5810 5810 5810 5809 5809 5809 5808 5808 5807 5807 5806 5806 5805 5804 5804 5803 5802 5801 5801 5800 5799 5798 5797 5796 5795 5794 5793 5792
5788 5790 5792 5794 5795 5796 5797 5798 5799 5800 5801 5801 5802 5802 5802 5802 5802 5802 5802 5801 5801 5801 5800 5800 5799 5799 5798 5797 5797 5796 5795 5794 5793 5792 5792 5791 5790 5789 5788 5787 5786 5784 5783
5779 5782 5784 5785 5786 5787 5789 5790 5791 5792 5793 5793 5794 5794 5794 5794 5794 5794 5793 5793 5793 5792 5792 5791 5791 5790 5790 5789 5788 5787 5787 5786 5785 5784 5783 5782 5781 5780 5779 5778 5777 5776 5774
5771 5773 5775 5776 5777 5779 5780 5781 5782 5783 5784 5784 5785 5786 5786 5786 5785 5785 5785 5784 5784 5784 5783 5783 5782 5781 5781 5780 5779 5778 5777 5776 5775 5774 5774 5773 5772 5771 5770 5768 5767 5766 5765
5762 5764 5765 5767 5768 5769 5770 5771 5772 5773 5774 5775 5776 5776 5776 5776 5776 5776 5776 5775 5775 5775 5774 5774 5773 5772 5771 5770 5769 5768 5767 5766 5766 5765 5764 5763 5762 5761 5759 5758 5757 5756 5754
5753 5755 5756 5757 5758 5760 5761 5761 5763 5763 5764 5765 5766 5767 5767 5767 5767 5767 5767 5766 5766 5765 5765 5764 5763 5763 5762 5760 5759 5758 5757 5756 5755 5754 5753 5752 5751 5750 5749 5747 5746 5745 5744
5744 5746 5747 5748 5749 5750 5751 5752 5753 5754 5754 5755 5756 5757 5758 5758 5758 5757 5757 5757 5756 5755 5755 5754 5753 5752 5751 5750 5749 5748 5747 5746 5745 5744 5743 5742 5740 5739 5738 5737 5735 5734 5733
5735 5736 5738 5739 5739 5740 5741 5742 5743 5744 5744 5745 5745 5746 5747 5748 5749 5748 5747 5747 5746 5745 5745 5744 5743 5742 5741 5740 5739 5737 5736 5735 5734 5733 5732 5730 5729 5728 5727 5725 5724 5723 5722
5726 5727 5728 5729 5730 5730 5731 5732 5733 5734 5734 5735 5735 5736 5737 5737 5737 5738 5738 5737 5736 5735 5734 5733 5732 5731 5730 5729 5728 5727 5725 5724 5723 5721 5720 5719 5717 5716 5715 5713 5712 5711 5710
5717 5717 5718 5718 5719 5720 5721 5722 5722 5723 5724 5724 5725 5725 5725 5725 5725 5726 5727 5727 5725 5724 5723 5722 5721 5720 5719 5718 5716 5715 5714 5713 5711 5710 5708 5707 5705 5704 5702 5701 5700 5699 5698
5707 5708 5708 5708 5708 5709 5710 5711 5712 5713 5713 5714 5714 5714 5714 5714 5714 5714 5714 5715 5714 5713 5712 5711 5709 5708 5707 5706 5704 5703 5702 5700 5699 5697 5695 5694 5693 5691 5690 5688 5687 5686 5685
5698 5699 5698 5698 5698 5699 5700 5701 5702 5703 5703 5703 5703 5703 5703 5702 5702 5702 5702 5702 5702 5702 5701 5699 5697 5696 5695 5693 5692 5691 5689 5687 5686 5684 5682 5681 5679 5677 5676 5675 5673 5672 5671
5689 5689 5689 5689 5689 5689 5690 5691 5691 5692 5692 5692 5692 5692 5692 5691 5690 5690 5690 5690 5690 5690 5689 5688 5686 5684 5682 5680 5679 5677 5675 5673 5672 5670 5668 5666 5665 5663 5661 5660 5658 5657 5656
5679 5679 5679 5679 5679 5679 5680 5680 5681 5681 5681 5681 5681 5680 5680 5679 5678 5678 5677 5676 5676 5676 5677 5675 5673 5671 5669 5667 5665 5663 5661 5659 5657 5655 5653 5651 5650 5648 5647 5645 5644 5643 5642
5669 5669 5669 5669 5669 5669 5669 5669 5670 5670 5670 5669 5669 5668 5668 5667 5666 5665 5665 5664 5662 5662 5662 5662 5660 5658 5655 5653 5650 5648 5646 5644 5642 5640 5638 5637 5635 5634 5632 5631 5629 5628 5627
5659 5659 5659 5659 5659 5659 5659 5658 5658 5658 5657 5657 5657 5656 5656 5654 5654 5653 5652 5650 5649 5648 5647 5647 5646 5644 5641 5639 5636 5634 5632 5630 5628 5626 5624 5622 5621 5619 5618 5616 5615 5613 5612
5649 5649 5649 5648 5648 5647 5647 5646 5646 5646 5645 5645 5644 5643 5643 5641 5641 5639 5638 5637 5635 5634 5633 5632 5631 5629 5627 5624 5622 5620 5618 5616 5614 5612 5610 5608 5606 5604 5603 5601 5600 5598 5597
5639 5638 5637 5636 5636 5635 5635 5634 5634 5633 5632 5632 5631 5630 5629 5628 5627 5626 5624 5623 5622 5619 5618 5616 5616 5613 5611 5609 5607 5606 5603 5601 5599 5597 5595 5593 5591 5589 5588 5586 5585 5583 5582
5628 5627 5626 5625 5624 5623 5623 5622 5621 5620 5620 5619 5618 5617 5616 5615 5613 5612 5610 5609 5607 5605 5603 5601 5600 5598 5596 5594 5592 5591 5589 5586 5584 5582 5580 5578 5576 5575 5573 5571 5570 5568 5566
5616 5615 5614 5613 5612 5611 5610 5609 5608 5607 5607 5606 5605 5604 5603 5601 5599 5598 5596 5594 5593 5591 5589 5587 5586 5584 5582 5579 5578 5576 5574 5572 5570 5567 5565 5563 5562 5560 5558 5556 5555 5553 5551
5605 5604 5602 5601 5600 5598 5597 5596 5595 5595 5594 5593 5593 5591 5590 5588 5587 5585 5583 5581 5579 5577 5575 5573 5571 5569 5568 5565 5563 5561 5559 5558 5557 5555 5552 5550 5547 5545 5543 5542 5540 5538 5536
5593 5591 5590 5589 5588 5586 5585 5584 5583 5582 5582 5581 5580 5579 5577 5576 5573 5572 5570 5568 5565 5563 5561 5559 5557 5556 5554 5552 5550 5548 5546 5544 5543 5540 5538 5537 5533 5531 5529 5527 5525 5524 5523
5580 5579 5578 5576 5575 5574 5572 5571 5570 5570 5569 5568 5567 5566 5564 5563 5560 5559 5557 5555 5552 5550 5548 5546 5544 5543 5540 5538 5536 5534 5532 5530 5528 5526 5523 5523 5520 5518 5515 5513 5511 5510 5509
5567 5566 5565 5564 5562 5561 5560 5559 5558 5557 5557 5556 5554 5553 5551 5550 5548 5546 5544 5542 5540 5538 5535 5532 5531 5529 5526 5524 5522 5520 5518 5516 5515 5513 5510 5508 5507 5505 5503 5500 5498 5497 5496
5553 5552 5552 5550 5549 5548 5547 5546 5546 5545 5545 5544 5542 5540 5538 5536 5534 5532 5530 5528 5527 5525 5522 5520 5518 5516 5514 5511 5509 5507 5505 5503 5501 5500 5497 5495 5493 5491 5491 5489 5486 5484 5483